Regional Weather Roundup
Issued by NWS Jackson, KY

Home | Current Version | Previous Version | Graphics & Text | Print | Product List | Glossary On
Versions: 1 2 3 4 5 6 7 8 9 10 11 12 13 14 15 16 17 18 19 20 21 22 23 24 25 26 27 28
000
ASUS43 KJKL 160810
RWRJKL

EAST KENTUCKY HOURLY WEATHER ROUNDUP
NATIONAL WEATHER SERVICE JACKSON KY
400 AM EDT MON OCT 16 2017

NOTE: "FAIR" INDICATES FEW OR NO CLOUDS BELOW 12,000 FEET WITH
NO SIGNIFICANT WEATHER AND/OR OBSTRUCTIONS TO VISIBILITY.

* THESE REPORTS ARE NOT UNDER NWS QUALITY CONTROL AND MAY NOT
  REPORT WEATHER SUCH AS PRECIPITATION AND FOG.

KYZ079-080-083-085-087-088-110-112-115-119-120-160900
...EASTERN KENTUCKY...

CITY           SKY/WX    TMP DP  RH WIND       PRES   REMARKS
JACKSON        CLOUDY    50  44  80 W5        30.20R
LONDON         CLOUDY    51  44  77 NW3       30.21S
SOMERSET*      CLOUDY    50  41  71 CALM      30.24F
MONTICELLO*    CLOUDY    52  43  71 N14G21    30.25S
WILLIAMSBURG*  CLOUDY    48  46  93 CALM      30.22S
MIDDLESBORO*   CLOUDY    51  45  79 N3        30.21S
HARLAN APT*    CLOUDY    50  43  76 NW3       30.19F
PIKE CO APT*   CLOUDY    49  47  93 NW5       30.18S
BIG SANDY APT* CLOUDY    51  46  83 CALM      30.19R
MOREHEAD APT*  CLOUDY    52  45  76 W3        30.22S
$$

KYZ035-036-041-042-044-050-067-078-099-160900
...CENTRAL KENTUCKY...

CITY           SKY/WX    TMP DP  RH WIND       PRES   REMARKS
MT STERLING*   CLOUDY    50  45  81 N6        30.23S
FLEMING/MASON* CLOUDY    51  45  82 NW7       30.22S
DANVILLE*      CLOUDY    50  41  71 NW6       30.24S
LEXINGTON      CLOUDY    51  44  77 NW8       30.23S
FRANKFORT      CLOUDY    51  43  74 NW8       30.23R
LOUISVILLE     MOCLDY    53  44  71 NW9       30.25S
LEBANON*         N/A     50  43  76 NW7       30.24S
GLASGOW*       CLOUDY    49  44  83 CALM      30.25F
BOWLING GREEN  CLOUDY    54  44  69 N3        30.26S
$$

KYZ091>093-OHZ055-061-077-WVZ005-015-034-035-042-160900
...SOUTHERN OHIO/WEST VIRGINIA...

CITY           SKY/WX    TMP DP  RH WIND       PRES   REMARKS
COVINGTON      PTCLDY    49  46  90 NW8       30.23R
COLUMBUS       CLOUDY    50  44  80 NW9       30.18R
DAYTON         CLEAR     44  44 100 NW5       30.22S
WILMINGTON     CLEAR     47  45  93 NW8       30.21R
HUNTINGTON     CLOUDY    53  45  74 NW6       30.17S
CHARLESTON     CLOUDY    53  46  77 VRB3      30.15S
PINEVILLE*     CLOUDY    51  47  88 MISG      30.20R
BECKLEY        CLOUDY    48  45  89 NW9       30.13S
BLUEFIELD      CLOUDY    47  46  97 NW8       30.13R FOG
LOGAN CO APT*  CLOUDY    48  46  93 CALM      30.15F
$$

VAZ002-007-008-TNZ017-027-036-066-071-160900
...SOUTHWEST VIRGINIA/EAST TENNESSEE...

CITY           SKY/WX    TMP DP  RH WIND       PRES   REMARKS
WISE*            N/A     45  45 100 N8        30.18S FOG
JONESVILLE*    CLOUDY    50  46  87 NW6       30.20S
ABINGDON*      CLOUDY    55  52  90 N10G18    30.11S
BRISTOL        LGT RAIN  56  56 100 N10       30.11S
MORRISTOWN*    CLOUDY    54  50  87 N13       30.13S
SEVIERVILLE*   CLOUDY    55  54  94 NW8       30.14S
KNOXVILLE      CLOUDY    54  52  93 N10       30.15R
LAFOLLETTE*    CLOUDY    52  46  82 NE6G16    30.23S
OAK RIDGE      CLOUDY    54  49  83 VRB3      30.18R
CROSSVILLE     CLOUDY    48  44  86 N9        30.20F
NASHVILLE      CLOUDY    54  44  69 N10       30.25F
$$

...KEY TO REMARKS...
VSB - VISIBILITY IN MILES
WCI - WIND CHILL INDEX
HX  - HEAT INDEX

$$




USA.gov is the U.S. government's official web portal to all federal, state and local government web resources and services.